www.pogodaiklimat.ru

Погода и климат >> Архив погоды >> Беларусь >> Житковичи


АРХИВ ПОГОДЫ в Житковичах

Время (UTC), дата Ветер
(напр.,м/с)
 
Видим.   Явления Облачность Т
(С)
Тd
(С)
f
(%)
Тe
(С)
Тes
(С)
Комфортность P
(гПа)
Po
(гПа)
Тmin
(С)
Tmax
(С)
R
(мм)
R24
(мм)
S
(см)
09 14.11 З 2 10 км 9/9 600 м
[Sc]
+2.4 +0.3 86 -1 -1 по сезону 1017.6 1000.6
12 14.11 З 2 10 км 9/9 600 м
[Sc]
+2.9 +0.2 82 -0 0 по сезону 1019.3 1002.4
15 14.11 ЮЗ 1 10 км 9/9 600 м
[Sc]
+3.2 +1.4 88 +2 +2 по сезону 1021.2 1004.2
18 14.11 ЮЗ 1 4000 м дымка 9/9 600 м
[Sc]
+2.9 +2.1 94 +1 +1 по сезону 1023.1 1006.1 +3.3
21 14.11 ЮЗ 2 4000 м дымка 9/9 600 м
[Sc]
+2.6 +2.1 97 -1 -1 по сезону 1023.7 1006.7
00 15.11 З 3 4000 м дымка 9/9 600 м
[Sc]
+2.6 +1.8 94 -2 -2 по сезону 1024.0 1007.0
03 15.11 ЮЗ 2 4000 м дымка 9/0
[Ac trans]
+1.7 +0.9 94 -2 -2 по сезону 1024.2 1007.1
06 15.11 Ю 2 10 км 10/6 600 м
[Sc Ac As]
+1.6 -0.3 87 -2 -2 по сезону 1024.2 1007.1 +1.6
09 15.11 ЮЗ 4 10 км 9/9 1000 м
[Sc]
+2.8 +0.1 82 -2 -2 по сезону 1024.7 1007.6
12 15.11 ЮЗ 4 10 км 9/9 1000 м
[Sc]
+4.1 +0.4 77 -0 -0 по сезону 1024.8 1007.7
15 15.11 З 3 4000 м слабый ливневой дождь 10/8 600 м
[Cb cap Ac und]
+3.6 +1.8 88 -0 -0 по сезону 1025.4 1008.3
18 15.11 ЮЗ 2 4000 м дымка {ливн. осадки} 10/4 600 м
[Cb cap Ac und]
+3.1 +2.1 93 -0 -0 по сезону 1025.9 1008.8 +4.2 0.3
21 15.11 З 2 4000 м дымка 9/9 600 м
[Sc]
+3.5 +2.5 93 0 0 по сезону 1025.7 1008.6
00 16.11 ЮЗ 2 4000 м дымка 9/9 600 м
[Sc]
+3.8 +2.8 93 +1 +1 по сезону 1025.7 1008.6
03 16.11 ЮЗ 2 4000 м дымка {ливн. осадки} 9/9 600 м
[Sc]
+3.8 +2.8 93 +1 +1 по сезону 1026.0 1008.9
06 16.11 ЮЗ 2 4000 м дымка 9/6 600 м
[Sc Ac trans]
+3.7 +2.7 93 +1 +1 по сезону 1026.6 1009.5 +3.1
09 16.11 ЮЗ 1 4000 м дымка 9/9 600 м
[Sc]
+5.0 +3.6 91 +4 +4 тепло 1027.6 1010.6
12 16.11 ЮЗ 2 10 км 10/4 600 м
[Sc Cs]
+7.3 +4.5 82 +5 +6 тепло 1027.4 1010.6
15 16.11 штиль 0 4000 м дымка 4/0
[Ac trans Ci fib]
+4.5 +3.5 93 +3 +3 по сезону 1027.6 1010.6
18 16.11 штиль 0 2000 м дымка 9/9 600 м
[Sc]
+3.5 +2.7 94 +2 +2 по сезону 1027.6 1010.5 +7.4
21 16.11 штиль 0 2000 м дымка 9/0
[Ac trans]
+1.5 +1.2 98 0 0 по сезону 1027.7 1010.5
00 17.11 штиль 0 1000 м дымка 6/0
[Ci fib]
-0.9 -1.2 98 -2 -2 по сезону 1027.4 1010.1
03 17.11 штиль 0 500 м туман ?/? -0.2 -0.2 100 -2 -2 по сезону 1026.7 1009.4
06 17.11 ЮЗ 1 2000 м дымка {туман} 9/0
[Ac trans]
-1.2 -1.5 98 -4 -4 по сезону 1026.1 1008.8 -1.5
09 17.11 Ю 2 10 км 10/0
[Ac und]
+1.1 -1.5 83 -2 -2 по сезону 1025.5 1008.3
12 17.11 Ю 2 10 км 10/0
[As op]
+1.8 -0.4 85 -2 -1 по сезону 1023.5 1006.4
15 17.11 ЮЗ 1 4000 м дымка {дождь} 9/9 300 м
[Sc]
+1.2 +0.4 94 -1 -1 по сезону 1023.3 1006.2
18 17.11 штиль 0 2000 м дымка {дождь} 3/0
[Ci fib]
0.0 -0.3 98 -1 -1 по сезону 1023.1 1005.8 +2.0 0.0
21 17.11 штиль 0 1000 м дымка 6/0
[Ac trans]
-0.8 -1.1 98 -2 -2 по сезону 1022.3 1005.0
00 18.11 штиль 0 1000 м дымка 9/0
[Ac trans]
+0.1 -0.2 98 -1 -1 по сезону 1022.2 1004.9
03 18.11 штиль 0 2000 м дымка 9/9 600 м
[Sc]
+0.5 -0.1 96 -1 -1 по сезону 1020.8 1003.7
06 18.11 Ю 1 4000 м дымка 10/8 600 м
[Sc Ac und]
+0.8 +0.3 96 -1 -1 по сезону 1020.4 1003.3 -1.3
09 18.11 ЮЗ 1 4000 м дымка 10/8 600 м
[Sc Ac und]
+2.0 +1.2 94 0 0 по сезону 1019.8 1002.7
12 18.11 Ю 2 10 км 9/9 600 м
[Sc]
+4.1 +1.8 85 +1 +1 по сезону 1017.6 1000.7
15 18.11 Ю 1 4000 м слабый снег {дождь} 10/8 300 м
[Frnb As op]
+3.2 +2.4 94 +2 +2 по сезону 1016.1 999.2
18 18.11 ЮЗ 1 4000 м слабый дождь {снег} 10/9 300 м
[Frnb As op]
+2.1 +1.6 96 0 0 по сезону 1015.1 998.1 +4.2 0.6
21 18.11 Ю 1 4000 м дымка {дождь} 10/10 300 м
[St]
+1.8 +1.3 96 -0 -0 по сезону 1013.7 996.7
00 19.11 Ю 2 2000 м дымка {дождь} 10/10 300 м
[St]
+1.3 +1.0 98 -2 -2 по сезону 1011.7 994.7
03 19.11 Ю 1 2000 м слабый дождь 10/10 300 м
[Frnb Ns]
+1.1 +0.8 98 -1 -1 по сезону 1009.2 992.3
06 19.11 ЮЗ 2 1000 м дымка {дождь} 10/10 300 м
[St]
+1.4 +1.1 98 -2 -2 по сезону 1008.8 991.9 +1.1 0.4
09 19.11 ЮЗ 3 4000 м дымка 9/9 600 м
[Sc]
+2.8 +1.8 93 -1 -1 по сезону 1008.3 991.5
12 19.11 ЮЗ 2 4000 м в посл. час ливневой дождь 9/5 600 м
[Cb cap Ac trans]
+3.1 +2.3 94 -0 0 по сезону 1007.6 990.8
15 19.11 Ю 3 4000 м дымка 10/6 600 м
[Sc Ac trans]
+2.9 +1.6 91 -1 -1 по сезону 1007.6 990.8
18 19.11 ЮЗ 2 10 км 9/9 600 м
[Sc]
+2.6 +0.5 86 -1 -1 по сезону 1008.3 991.5 +3.3 0.4
21 19.11 Ю 1 10 км 9/9 600 м
[Sc]
+1.7 -0.5 85 0 0 по сезону 1008.8 991.9
00 20.11 Ю 2 10 км 9/9 600 м
[Sc]
+1.8 -0.7 83 -1 -1 по сезону 1008.6 991.7
03 20.11 Ю 2 10 км 9/9 600 м
[Sc]
+1.5 -0.7 85 -2 -2 по сезону 1008.6 991.7
06 20.11 Ю 1 4000 м дымка 3/0
[Ac trans]
+0.4 -0.7 92 -2 -2 по сезону 1009.1 992.1 +0.4
09 20.11 Ю 2 10 км 9/5 1000 м
[Sc Ac trans]
+1.8 +0.2 89 -2 -1 по сезону 1009.0 992.1
12 20.11 Ю 3 10 км 10/8 1000 м
[Sc Ac und]
+2.8 +0.7 86 -1 -1 по сезону 1008.7 991.9
15 20.11 Ю 2 10 км 9/8 600 м
[Sc Ac trans]
+2.5 +0.4 86 -1 -1 по сезону 1008.7 991.9
18 20.11 Ю 1 4000 м дымка 3/0
[Ci fib]
+0.3 -0.5 94 -2 -2 по сезону 1008.9 991.9 +3.9
21 20.11 штиль 0 4000 м дымка {ливн. осадки} 9/5 600 м
[Cb cap Ac und]
+0.1 -0.2 98 -1 -1 по сезону 1009.0 992.0
00 21.11 штиль 0 4000 м дымка {ливн. осадки} 10/8 600 м
[Sc Ac und]
+0.7 +0.1 96 -1 -1 по сезону 1009.2 992.3
03 21.11 ЮЗ 2 4000 м слабый ливневой дождь со снегом 10/8 600 м
[Cb cap Ac As]
+0.6 +0.1 96 -3 -3 по сезону 1009.7 992.7

 

Местоположение метеостанции Житковичи (Гомельская область, Беларусь): широта 52.22 долгота 27.87 высота над уровнем моря 137 м.

В архиве по умолчанию представлена погода в Житковичах за последнюю неделю. Архивные данные за месяц целиком и за предыдущие месяцы, начиная с января 2011 года, Вы можете получить, выбрав интересующий диапазон дат из раскрывающегося списка и нажав кнопку "Ввод!".

Внимание! Время в таблицах - всемирное. Для получения местного времени необходимо прибавить поправку, которая в Житковичах равна 3 ч.

Смотрите также архив погоды в соседних городах и на ближайших метеорологических станциях:

Погода в Полесской (Брестская область, Беларусь) (80 км)
Погода в Октябре (Гомельская область, Беларусь) (82 км)
Погода в Мозыре (Гомельская область, Беларусь) (92 км)
Погода в Слуцке (Минская область, Беларусь) (93 км)
Погода в Олевске (Житомирская область, Украина) (112 км)
Погода в Ганцевичах (Брестская область, Беларусь) (113 км)
Погода в Овруче (Житомирская область, Украина) (118 км)
Погода в Пинске (Брестская область, Беларусь) (124 км)
Погода в Василевичах (Гомельская область, Беларусь) (134 км)
Погода в Сарнах (Ровенская область, Украина) (135 км)

Пояснения к столбцам:

Ветер - указаны скорость ветра в м/с - средняя за 10 мин, порывы в срок и между сроками (в фигурных скобках) и направление, откуда дует ветер: С - северный, СВ - северо-восточный, В - восточный, ЮВ - юго-восточный, Ю - южный, ЮЗ - юго-западный, З - западный, СЗ - северо-западный.
Видимость - горизонтальная дальность видимости в метрах или километрах. При видимости от 1 до 10 км при отсутствии осадков обычно наблюдается дымка, при ухудшении видимости до 1 км и менее - туман. В сухую погоду видимость может ухудшаться дымом, пылью или мглою.
Явления - указаны атмосферные явления, наблюдавшиеся в срок или в последний час перед сроком; фигурными скобками обозначены явления, наблюдавшиеся между сроками (за 1-3 часа до срока); квадратными скобками обозначены град или гололедные отложения с указанием их диаметра в мм.
Облачность - указаны через наклонную черту общая и нижняя облачность в баллах и высота нижней границы облаков в метрах; квадратными скобками обозначены формы облаков: Ci - перистые, Cs - перисто-слоистые, Cc - перисто-кучевые, Ac - высококучевые, As - высокослоистые, Sc - слоисто-кучевые, Ns - слоисто-дождевые, Cu - кучевые, Cb - кучево-дождевые. Подробнее классификацию облаков см. в Атласе облаков (PDF).
T - Температура воздуха - температура, измеренная на высоте 2 м над землей.
Td - Температура точки росы - температура, при понижении до которой содержащийся в воздухе водяной пар достигнет насыщения.
f - Относительная влажность воздуха - влажноcть воздуха, измеренная на высоте 2 м над землей.
Te - Эффективная температура - температура, которую ощущает одетый по сезону человек в тени. Характеристика душности погоды. При расчете учитывается влияние влажности воздуха и скорости ветра на теплоощущения человека.
Tes - Эффективная температура на солнце - температура, которую ощущает человек, с поправкой на солнечный нагрев. Характеристика знойности погоды. Зависит от высоты солнца над горизонтом, облачности и скорости ветра. Ночью, в пасмурную погоду, а также при ветре 12 м/с и более поправка равна нулю.
P - Атмосферное давление - приведенное к уровню моря атмосферное давление.
Po - Атмосферное давление - измеренное на уровне метеостанции атмосферное давление.
Tmin - Минимальная температура - минимум температуры воздуха на высоте 2 м над землей.
Tmax - Максимальная температура - максимум температуры воздуха на высоте 2 м над землей.
R - Количество осадков - Количество выпавших осадков за период времени, мм. При наведении курсора мыши на число - период времени, за который выпало указанное количество осадков.
R24 - Количество осадков - Количество выпавших осадков за 24 часа, мм.
S - Снежный покров - Высота снежного покрова, см. При наведении курсора мыши на число - состояние снежного покрова и степень покрытия местности в баллах.